Location: Kuffner-Sternwarte
(48.2130°N, 16.2960°E)
Time: 11:15:52
(UTC+02:00)

COROT - Pass Details

Date: 16 May 2018
Orbit: 602 x 886 km, 90.0° (Epoch: 19 October)

Event Time Altitude Azimuth Distance (km) Brightness Sun altitude
Rises 23:40:33 0° 345° (NNW) 2,960 10.6 -20.7°
Reaches altitude 10° 23:43:28 10° 324° (NW) 2,089 9.3 -20.9°
Maximum altitude 23:46:14 16° 287° (WNW) 1,756 8.2 -21.0°
Drops below altitude 10° 23:49:07 10° 250° (WSW) 2,179 8.3 -21.1°
Enters shadow 23:50:40 - 238° (WSW) 2,622 8.6 -21.2°
